Location: Unspecified
(0.0000°N, 0.0000°E)
Time: 14:40:43
(UTC+00:00)

FENGYUN 1C DEB - Pass Details

Date: 18 February 2026
Orbit: 814 x 927 km, 98.2° (Epoch: 15 July)

Event Time Altitude Azimuth Distance (km) Brightness Sun altitude
Rises 19:29:55 0° 176° (S) 3,393 ? -18.6°
Reaches altitude 10° 19:32:18 10° 179° (S) 2,467 ? -19.2°
Maximum altitude 19:37:41 59° 258° (WSW) 987 ? -20.5°
Drops below altitude 10° 19:43:09 10° 337° (NNW) 2,505 ? -21.9°
Sets 19:45:35 0° 341° (NNW) 3,449 ? -22.4°
